Regional Weather Roundup
Issued by NWS

Home | Current Version | Previous Version | Graphics & Text | Print | Product List | Glossary On
Versions: 1 2 3 4 5 6 7 8 9 10 11 12 13 14 15 16 17 18 19 20 21 22 23 24 25 26 27 28 29 30 31 32 33 34 35 36 37 38 39 40 41 42 43 44 45 46 47 48 49 50
000
ASUS45 KCYS 181310
RWRWY

WYOMING REGIONAL WEATHER ROUNDUP
NATIONAL WEATHER SERVICE CHEYENNE WY
600 AM MST THU DEC 18 2014

NOTE:  "FAIR" INDICATES FEW OR NO CLOUDS BELOW 12,000 FEET
WITH NO SIGNIFICANT WEATHER AND/OR OBSTRUCTIONS TO VISIBILITY.

WYZ001-181400-
YELLOWSTONE NATIONAL PARK

CITY           SKY/WX    TMP DP  RH WIND       PRES   REMARKS
LK YELLOWSTONE   N/A     19  16  88 CALM      30.03R
W YELLOWSTONE  NOT AVBL

$$
WYZ002>013-054>058-071-098>099-181400-
NORTHERN WYOMING

CITY           SKY/WX    TMP DP  RH WIND       PRES   REMARKS
JACKSON        CLOUDY    16  16 100 N6        30.05R WCI   7
CODY           FAIR      21  16  79 CALM      29.96R
GREYBULL       FAIR       7   4  87 CALM      30.05R
WORLAND        FAIR      -4  -9  79 CALM      30.03R
SHERIDAN       FAIR      13   9  84 CALM      29.95R
BUFFALO        FAIR      24  15  68 W9        29.95R WCI  14
GILLETTE       FAIR      19  13  77 SW5       29.95S WCI  12
HULETT           N/A    N/A N/A N/A MISG        N/A
NEWCASTLE      FAIR      10  10 100 CALM      29.99R

$$
WYZ014>020-022>026-101>103-181400-
CENTRAL WYOMING

CITY           SKY/WX    TMP DP  RH WIND       PRES   REMARKS
BIG PINEY      FAIR       8   4  83 N6        30.05R WCI  -2
PINEDALE       FAIR       9   7  92 W5        30.05R WCI   0
DUBOIS         CLOUDY    25  14  63 W21       29.98S WCI  10
LANDER         FAIR      -1  -6  79 CALM      30.01R
RIVERTON       FOG        8   4  83 CALM      30.02R VSB 1/4
CASPER         FAIR      20  13  74 SW8       29.99R WCI  10
DOUGLAS        FAIR       6   2  83 W5        29.99R WCI  -3

$$
WYZ021-027>030-104>119-181400-
SOUTHERN WYOMING

CITY           SKY/WX    TMP DP  RH WIND       PRES   REMARKS
EVANSTON       MOCLDY    21  19  92 SW6       30.06R WCI  13
FORT BRIDGER   FAIR      23  20  89 SW8       30.08R WCI  14
ROCK SPRINGS   FAIR      16  13  88 CALM      30.04R
DIXON          CLOUDY   N/A N/A N/A SE5       30.11R
RAWLINS        FAIR      18  14  84 SW14      30.03R WCI   4
SARATOGA       CLOUDY    19  16  86 S10       30.04S WCI   8
LARAMIE        FAIR      13   9  84 W8        29.97R WCI   2
CHEYENNE       FAIR      21  13  71 W8        29.98R WCI  11
TORRINGTON     FOG        6   4  91 CALM      30.01R VSB 1/4
PINE BLUFFS    FAIR      18  14  86 CALM      29.99S

$$


USA.gov is the U.S. government's official web portal to all federal, state and local government web resources and services.